Powrót do katalogu

FENGYUN 1C DEB

AktywnyPO
NORAD 35091·DEBRIS·🇨🇳 China

Wystrzelony May 10, 1999 z Taiyuan Satellite Launch Center

Loading…

Następne Przeloty (najbliższe 24 godziny)

TLE

ŚwieżeSource: Space-Track

Epoka: Sep 14, 2026, 06:47 UTC

1 35091U 99025DJT 26257.28294613  .00008471  00000-0  14501-2 0  9993
2 35091  98.6059  19.2360 0044019 155.6267 204.7032 14.68443430939633

Śledź FENGYUN 1C DEB w czasie rzeczywistym z AllMySat

Download on the App Store